DW9758 Weather Reports


Display with metric or nautical units.
time (UTC)temp
F
wind
direction
speed
MPH
gust
MPH
rain 1hr
in
rain 24hr
in
rain mn
in
humidity
%
barometer
mb
20260504090121 59 62 3.0 11.0 0.00 0.00 0.00 49 1011.4
20260504081656 57 43 0.0 1.0 0.00 0.00 0.00 56 1011.6
20260504044537 47 297 0.0 0.0 0.00 0.00 0.00 78 1012.2
20260504043033 46 297 0.0 0.0 0.00 0.00 0.00 76 1012.2
20260504041524 46 297 0.0 0.0 0.00 0.00 0.00 79 1012.1
20260504040024 46 297 0.0 0.0 0.00 0.00 0.00 79 1012.1
20260504034533 46 297 0.0 0.0 0.00 0.00 0.00 78 1012.5
20260504033029 46 297 0.0 0.0 0.00 0.00 0.00 79 1012.5
20260504031520 46 297 0.0 0.0 0.00 0.00 0.00 79 1012.6
20260504030019 46 340 0.0 0.0 0.00 0.00 0.00 78 1012.6
20260504024521 46 45 0.0 0.0 0.00 0.00 0.00 80 1012.7
20260504023016 45 45 0.0 0.0 0.00 0.00 0.00 81 1012.9
20260504021513 45 198 0.0 0.0 0.00 0.00 0.00 83 1013.0
20260504020015 45 208 0.0 0.0 0.00 0.00 0.00 82 1013.0
20260504014514 46 337 0.0 0.0 0.00 0.00 0.00 81 1013.0
20260504013010 46 359 0.0 0.0 0.00 0.00 0.00 81 1013.0
20260504011507 47 360 0.0 0.0 0.00 0.00 0.00 81 1013.0
20260504010009 47 354 0.0 0.0 0.00 0.00 0.00 82 1013.1
20260504004510 47 353 0.0 0.0 0.00 0.00 0.00 82 1013.1
20260504003002 47 349 0.0 0.0 0.00 0.00 0.00 83 1013.1
20260504001502 47 323 0.0 0.0 0.00 0.00 0.00 83 1013.3
20260504000100 48 288 0.0 0.0 0.00 0.00 0.00 83 1013.3
20260503234557 48 288 0.0 0.0 0.00 0.00 0.00 82 1013.3
20260503233056 49 287 0.0 0.0 0.00 0.00 0.00 81 1013.4
20260503231554 49 286 0.0 0.0 0.00 0.00 0.00 82 1013.3
20260503230053 49 285 0.0 0.0 0.00 0.00 0.00 82 1013.3
20260503224552 50 286 0.0 0.0 0.00 0.00 0.00 82 1013.4
20260503223051 50 285 0.0 0.0 0.00 0.00 0.00 81 1013.5
20260503221549 50 285 0.0 0.0 0.00 0.00 0.00 82 1013.4
20260503220104 50 284 0.0 0.0 0.00 0.00 0.00 81 1013.3
20260503214547 50 286 0.0 0.0 0.00 0.00 0.00 81 1013.4
20260503213048 51 286 0.0 0.0 0.00 0.00 0.00 79 1013.3
20260503211559 52 286 0.0 0.0 0.00 0.00 0.00 78 1013.3
20260503210043 53 286 0.0 0.0 0.00 0.00 0.00 77 1013.0
20260503204542 53 286 0.0 0.0 0.00 0.00 0.00 77 1012.9
20260503203042 53 285 0.0 0.0 0.00 0.00 0.00 75 1012.6
20260503201541 54 285 0.0 0.0 0.00 0.00 0.00 74 1012.7
20260503200041 54 278 0.0 0.0 0.00 0.00 0.00 74 1012.7
20260503194540 54 313 0.0 0.0 0.00 0.00 0.00 72 1012.6
20260503193048 55 316 0.0 0.0 0.00 0.00 0.00 72 1012.5
20260503191539 55 249 0.0 0.0 0.00 0.00 0.00 71 1012.4
20260503190038 55 278 0.0 0.0 0.00 0.00 0.00 70 1012.3
20260503184538 55 291 0.0 0.0 0.00 0.00 0.00 70 1012.1
20260503183040 56 268 0.0 1.0 0.00 0.00 0.00 71 1012.1
20260503181612 56 333 0.0 5.0 0.00 0.00 0.00 69 1012.0
20260503180040 56 286 0.0 0.0 0.00 0.00 0.00 69 1012.1
20260503174537 57 294 0.0 0.0 0.00 0.00 0.00 68 1012.1
20260503173050 58 257 2.0 10.0 0.00 0.00 0.00 64 1012.0
20260503171534 60 235 0.0 5.0 0.00 0.00 0.00 59 1012.1
20260503120106 70 228 1.0 4.0 0.00 0.00 0.00 37 1011.7